Ashland, WI

3:57 AM CST on January 24, 2018 (GMT -0600)
Kennedy Memorial

Weather History for KASX - December, 2011

Change the Weather History Date:

Monday, December 5, 2011

  Actual Average Record
Temperature  
Mean Temperature 20 °F 22 °F  
Max Temperature 25 °F 29 °F 56 °F (2001)
Min Temperature 15 °F 15 °F -17 °F (1964)
Degree Days  
Heating Degree Days 45 43  
Month to date heating degree days 211  
Cooling Degree Days 0 0  
Month to date cooling degree days 0  
Moisture  
Dew Point 18 °F    
Average Humidity 87    
Maximum Humidity 93    
Minimum Humidity 81    
Precipitation  
Precipitation 0.01 in - 0.65 in (1998)
Sea Level Pressure  
Sea Level Pressure 30.46 in    
Wind  
Wind Speed 7 mph (NNW)    
Max Wind Speed 13 mph    
Max Gust Speed -    
Visibility 6 miles    
Events Snow    
T = Trace of Precipitation, MM = Missing Value Source: NWS Daily Summary

Daily Weather History Graph

Daily Weather History Graph

Search for Another Location

Airport or City:

Trip Planner

Search our weather history database for the weather conditions in past years. The results will help you decide how hot, cold, wet, or windy it might be!

Date:

Astronomy

Dec. 05, 2011 Rise Set
Actual Time 7:31 AM CST 4:16 PM CST
Civil Twilight 6:56 AM CST 4:51 PM CST
Nautical Twilight 6:18 AM CST 5:29 PM CST
Astronomical Twilight 5:42 AM CST 6:05 PM CST
Moon 1:25 PM CST (12/5) 2:41 AM CST (12/5)
Length of Visible Light 9h 54m
Length of Day
8h 45m
Waxing Gibbous, 80% of the Moon is Illuminated
Dec 5
Waxing Gibbous
Dec 10
Full
Dec 17
Last Quarter
Dec 24
New
Jan 1
First Quarter

Hourly Weather History & Observations

Time (CST) Temp. Windchill Dew Point Humidity Pressure Visibility Wind Dir Wind Speed Gust Speed Precip Events Conditions
12:41 AM 23.0 °F 18.4 °F 19.4 °F 86% 30.32 in 10.0 mi West 3.5 mph - N/A   Overcast
12:53 AM 23.0 °F - 19.9 °F 88% 30.36 in 10.0 mi Calm Calm - N/A   Overcast
1:53 AM 21.9 °F 15.7 °F 19.0 °F 89% 30.37 in 10.0 mi West 4.6 mph - N/A   Overcast
2:53 AM 24.1 °F 18.2 °F 21.0 °F 88% 30.38 in 8.0 mi WNW 4.6 mph - N/A   Overcast
3:53 AM 25.0 °F 16.3 °F 21.9 °F 88% 30.39 in 4.0 mi North 8.1 mph - 0.00 in Snow Light Snow
4:08 AM 24.8 °F 16.1 °F 21.2 °F 86% 30.35 in 4.0 mi North 8.1 mph - 0.00 in Snow Light Snow
5:40 AM 24.8 °F 15.3 °F 21.2 °F 86% 30.37 in 10.0 mi NNE 9.2 mph - 0.00 in   Overcast
5:53 AM 25.0 °F 16.3 °F 21.9 °F 88% 30.42 in 10.0 mi North 8.1 mph - 0.00 in   Overcast
6:53 AM 24.1 °F 13.7 °F 19.9 °F 84% 30.45 in 10.0 mi North 10.4 mph - N/A   Overcast
7:40 AM 23.0 °F 11.1 °F 19.4 °F 86% 30.41 in 10.0 mi North 12.7 mph - N/A   Overcast
7:53 AM 23.0 °F 11.7 °F 19.0 °F 85% 30.45 in 10.0 mi North 11.5 mph - N/A   Overcast
8:33 AM 23.0 °F 11.7 °F 19.4 °F 86% 30.41 in 8.0 mi North 11.5 mph - 0.00 in   Overcast
8:53 AM 23.0 °F 13.1 °F 19.0 °F 85% 30.48 in 9.0 mi North 9.2 mph - 0.00 in   Overcast
9:29 AM 21.2 °F 10.9 °F 19.4 °F 93% 30.46 in 1.8 mi NNW 9.2 mph - 0.00 in Snow Light Snow
9:53 AM 21.9 °F 10.4 °F 19.0 °F 89% 30.51 in 1.0 mi North 11.5 mph - 0.00 in Snow Light Snow
10:17 AM 21.2 °F 10.9 °F 19.4 °F 93% 30.47 in 2.0 mi North 9.2 mph - 0.00 in Snow Light Snow
10:29 AM 21.2 °F 10.9 °F 19.4 °F 93% 30.47 in 3.0 mi North 9.2 mph - 0.00 in Snow Light Snow
10:46 AM 21.2 °F 11.7 °F 19.4 °F 93% 30.47 in 2.5 mi NNW 8.1 mph - 0.00 in Snow Light Snow
10:53 AM 21.9 °F 12.5 °F 19.0 °F 89% 30.52 in 2.5 mi NNW 8.1 mph - 0.00 in Snow Light Snow
11:53 AM 21.9 °F 11.0 °F 19.0 °F 89% 30.50 in 2.0 mi North 10.4 mph - 0.00 in Snow Light Snow
12:21 PM 21.2 °F 10.9 °F 19.4 °F 93% 30.45 in 1.2 mi North 9.2 mph - 0.01 in Snow Light Snow
12:53 PM 21.9 °F 12.5 °F 19.0 °F 89% 30.49 in 1.0 mi North 8.1 mph - 0.01 in Snow Light Snow
1:25 PM 21.2 °F 11.7 °F 17.6 °F 86% 30.43 in 1.8 mi North 8.1 mph - 0.00 in Snow Light Snow
1:49 PM 21.2 °F 11.7 °F 17.6 °F 86% 30.44 in 2.0 mi North 8.1 mph - 0.00 in Snow Light Snow
1:53 PM 21.9 °F 11.7 °F 18.0 °F 85% 30.49 in 2.5 mi North 9.2 mph - 0.00 in Snow Light Snow
1:58 PM 21.2 °F 12.6 °F 17.6 °F 86% 30.44 in 3.0 mi North 6.9 mph - 0.00 in Snow Light Snow
2:53 PM 21.0 °F 13.4 °F 18.0 °F 88% 30.50 in 1.8 mi NNW 5.8 mph - 0.00 in Snow Light Snow
3:11 PM 21.2 °F 12.6 °F 17.6 °F 86% 30.45 in 2.0 mi NNW 6.9 mph - 0.00 in Snow Light Snow
4:25 PM 19.4 °F 8.6 °F 15.8 °F 86% 30.47 in 7.0 mi North 9.2 mph - 0.00 in   Overcast
4:53 PM 19.0 °F 10.0 °F 14.0 °F 81% 30.52 in 10.0 mi NNW 6.9 mph - 0.00 in   Overcast
5:43 PM 19.4 °F 11.5 °F 15.8 °F 86% 30.47 in 10.0 mi NNW 5.8 mph - N/A   Overcast
5:53 PM 19.0 °F 10.0 °F 15.1 °F 85% 30.53 in 10.0 mi NNW 6.9 mph - N/A   Overcast
6:53 PM 18.0 °F 11.1 °F 15.1 °F 88% 30.53 in 10.0 mi NW 4.6 mph - N/A   Overcast
7:53 PM 18.0 °F 12.7 °F 15.1 °F 88% 30.52 in 10.0 mi WNW 3.5 mph - N/A   Overcast
8:53 PM 18.0 °F 8.7 °F 14.0 °F 84% 30.51 in 10.0 mi NNW 6.9 mph - N/A   Overcast
9:53 PM 18.0 °F 11.1 °F 14.0 °F 84% 30.50 in 10.0 mi NNW 4.6 mph - N/A   Overcast
10:53 PM 17.1 °F 11.7 °F 14.0 °F 88% 30.50 in 10.0 mi WSW 3.5 mph - N/A   Overcast
11:08 PM 15.8 °F 10.2 °F 12.2 °F 86% 30.45 in 10.0 mi SSW 3.5 mph - N/A   Overcast
11:53 PM 15.1 °F 9.4 °F 12.9 °F 91% 30.50 in 10.0 mi WSW 3.5 mph - N/A   Overcast